STARLINK-35690, 66383

Orbit data source: Space-Track

STARLINK-35690, 66383 is a payload satellite owned by SpaceX/Seattle (US) in LEO that was launched on Sat, 08 Nov 2025 UTC via an FALCON 9 launch vehicle from the Air Force Eastern Test Range (AFETR). Payload-class satellites include a variety of spacecraft equipped with specific instruments for various scientific and technological missions. These include communications satellites like Starlink; space stations such as the ISS; scientific satellites like the Hubble; Earth observation satellites from companies like Planet Labs, Umbra, and HawkEye 360; GPS; miniature CubeSats for education and research; and military/defense satellites.

Loading next visibility...
Identifier
66383, 2025-257D
Orbit
LEO
Country
Flag of USUS
Related business
Manufacturer
SpaceX/Seattle
Mission
Operational Commercial Communications
Bus & Motor
STARLINK V2MO, Unknown motor
Mass
575 kg wet, ~530 kg dry
Launch date (UTC)
2025-11-08 (7 months ago)
Launch vehicle
FALCON 9
Launch site
Air Force Eastern Test Range (AFETR)
Object type
Payload
Rocket body
Debris
Shape & HBR
Box + 2 Pan, 17.7 m
Radar Cross Section
36.964 m², Large (>1 m²)

Expand to show TLE details & history
Last TLE update: 1 day ago

TLE from 1 day ago
0 STARLINK-35690
1 66383U 25257D   26170.54357523  .00016106  00000-0  48675-3 0  9994
2 66383  53.1586 102.0927 0001256  99.3767 260.7378 15.34402028 35350
Epoch: 2026-06-19T13:02Z
TLE epoch observation values (Epoch: 2026-06-19T13:02:44.899Z)
Latitude
-0.00001°
Longitude
-1.36543°
Altitude
463.737 km
Speed
7.636 km/s
True Right ascension
06h 48m 22s
True Declination
0° 00' 00"
Sunlit
Object was in daylight at epoch
Visualization orbit readout
Latitude
Unknown
Longitude
Unknown
Altitude
Unknown
Speed
Unknown
Apparent Right ascension
Unknown
Apparent Declination
Unknown
Sunlit
N/A
Visualization observer readout
Local Sidereal Time
07:18:18
Azimuth
Unknown
Elevation
Unknown
Doppler factor
Unknown
Orbital elements
Apogee altitude
463.814 km
Perigee altitude
462.095 km
Semi-major axis
6,841.091 km
Eccentricity
0.00013
Inclination
53.1586°
RAAN
102.0927°
Arg. of periapsis
99.3767°
True anomaly
260.7236°
Mean anomaly
260.7378°
Eccentric anomaly
260.7307°
Mean motion
3.83579 °/min
Orbital period
93.85 mins
BSTAR
0.00048675
Loading maneuver chart data...
Computing Atmospheric mass density...
Loading historical data...
Loading historical data...
Loading historical data...
Loading historical data...
Loading historical data...
Loading historical data...
Loading historical data...

Documentation

Showing up to 5 results
|